Vertical_Velocity
-6 -6 -5 -5 -5 -5 -5 -5 -5 -4 -4 -3 -3 -3 -3 -3 -3 -3 -3 -2 -2 -1 -1 -1 -0 0 1 1 1 1 0 -0 -1 -1 -1 -1 -2 -2 -3 -3 -3 -4 -4 -4 -3 -2 -2 -1 -1 -1 -1 -1 -1 -2 -2 -2 -1 0 2 2 0 -1 -2 -1 -2 -2 -1 2 2
-6 -5 -4 -3 -3 -4 -5 -5 -4 -4 -3 -2 -2 -2 -3 -4 -3 -3 -3 -2 -1 -1 -1 -1 -0 0 1 1 1 0 -0 -0 -1 -1 -1 -2 -3 -3 -3 -3 -3 -3 -3 -3 -2 -2 -1 -1 -1 -1 -1 -1 -1 -0 2 5 5 8 13 15 12 9 4 -2 -2 -3 -3 -3 -2
-4 4 12 14 11 6 -0 -5 -4 -2 -1 -0 -1 -2 -3 -3 -3 -2 -2 -2 -1 -1 -1 -1 -1 -0 0 1 0 -0 -0 -1 -1 -2 -2 -2 -3 -3 -3 -3 -3 -3 -2 -2 -2 -2 -2 -1 -1 -1 -0 -1 -1 -1 -0 0 1 3 7 15 18 16 12 7 3 -1 -3 -3 -2
-5 5 14 14 11 6 -0 -4 -1 1 2 1 -0 -1 -2 -1 -1 -1 -1 -1 -1 -1 -1 -1 -1 -1 0 0 -0 -1 -1 -1 -1 -2 -2 -3 -3 -3 -3 -3 -2 -2 -2 -3 -2 -2 -2 -2 -1 -1 -1 -1 -1 -1 -2 -2 -1 -0 1 5 10 12 9 1 -2 -2 -2 -2 -2
-6 0 6 7 3 1 1 1 10 11 7 0 -0 -0 -0 0 -0 0 0 0 -0 -1 -1 -1 -1 -1 -0 -0 -1 -1 -2 -2 -2 -2 -2 -3 -2 -2 -2 -3 -2 -3 -3 -3 -2 -2 -2 -2 -1 -1 -1 -1 -1 -2 -2 -3 -3 -2 -2 -2 2 3 2 -4 -3 -2 -2 -2 -1
-3 1 6 6 1 2 6 8 17 13 5 -1 -0 0 1 0 1 1 1 1 -0 -1 -1 -1 -1 -1 -1 -1 -2 -2 -2 -3 -2 -2 -1 -1 -1 -1 -1 -2 -2 -2 -2 -2 -2 -2 -2 -2 -2 -2 -1 -1 -1 -1 -1 -2 -3 -3 -2 -0 1 1 -1 -4 -2 -2 -2 -2 -1
4 1 -1 -4 -1 2 8 19 18 9 0 -0 0 1 1 1 0 1 0 -0 -1 -2 -2 -1 -1 -1 -2 -2 -3 -2 -2 -2 -2 -1 -1 -0 -0 0 0 -0 -1 -1 -0 0 2 1 -1 -1 -1 -1 -1 -1 -1 -0 1 3 2 2 0 -1 -2 -2 -2 -2 -1 -1 -1 -1 -1
12 10 8 6 8 9 14 30 24 11 1 2 0 0 0 0 0 -0 -0 -1 -2 -2 -2 -1 -2 -2 -2 -3 -3 -3 -2 -2 -1 -1 -1 -1 -0 -0 0 0 0 0 1 1 2 2 1 0 -0 -0 -0 -1 -0 3 5 5 3 1 -0 -2 -2 -2 -1 -1 -1 -1 -1 -1 -0
13 11 12 14 13 14 17 24 20 12 5 2 0 -0 -0 -0 -0 -1 -1 -2 -2 -2 -1 -2 -3 -3 -3 -3 -3 -2 -2 -2 -2 -2 -2 -1 -1 -0 0 1 1 1 1 0 -0 0 1 1 1 3 5 4 3 2 1 -0 -2 -2 -1 -0 -1 -1 -1 -0 -1 -1 -1 -0 -0
14 12 12 11 12 15 17 16 18 14 7 1 0 -0 -1 -1 -1 -2 -2 -3 -2 -2 -2 -3 -2 -2 -3 -2 -2 -2 -2 -2 -2 -3 -3 -2 -2 -1 -0 -0 0 0 1 1 1 1 1 1 0 1 1 2 1 1 0 1 0 0 1 1 0 -0 -1 -0 -1 -2 -2 -1 -0
9 9 7 5 18 27 30 24 19 12 5 1 0 -1 -2 -2 -2 -3 -3 -2 -2 -3 -3 -3 -3 -3 -2 -2 -1 -2 -2 -2 -3 -3 -3 -3 -3 -3 -2 -1 -1 -0 0 1 1 1 1 1 0 -0 0 1 1 1 1 1 1 0 1 1 1 -0 -1 -1 -2 -3 -4 -2 -1
3 5 10 21 42 47 38 19 9 4 0 -1 -2 -3 -4 -4 -3 -3 -3 -3 -3 -3 -3 -3 -3 -2 -2 -1 -2 -1 -1 -1 -2 -2 -3 -3 -3 -3 -2 -1 -1 -0 0 1 1 1 1 1 1 0 -0 -0 -0 -0 -0 0 0 -0 -1 -1 -1 -1 -2 -2 -2 -3 -4 -3 -2
11 21 36 55 56 43 23 3 -2 -3 -4 -4 -4 -4 -3 -2 -2 -2 -3 -4 -3 -3 -3 -3 -3 -2 -1 -2 -2 -2 -2 -1 -1 -2 -2 -2 -2 -1 -1 -1 -0 -0 -0 0 1 1 1 1 1 1 -0 -0 -0 -0 -1 -1 -1 -1 -2 -2 -2 -2 -2 -2 -2 -2 -3 -3 -2
38 43 47 45 29 13 2 -3 -4 -5 -6 -5 -3 0 3 7 4 1 -3 -4 -3 -3 -3 -2 0 1 -1 -3 -3 -3 -3 -2 -2 -2 -2 -1 -1 -1 -1 -0 -0 -0 -0 0 1 1 1 1 1 1 1 -0 -0 -1 -1 -1 -1 -1 -2 -2 -2 -2 -1 -1 -1 -1 -1 -2 -1
44 31 18 7 -2 -4 -1 4 2 0 -1 -0 4 8 10 9 4 -0 -3 -3 -3 -3 -2 2 6 5 0 -4 -3 -3 -3 -2 -2 -2 -1 -1 -1 -1 -1 -0 -0 -0 -0 -0 0 1 1 1 1 1 1 0 -0 -1 -1 -2 -1 -1 -1 -1 -1 -1 -1 -0 -0 -1 -1 -1 -0
22 9 -1 -7 -6 2 12 15 12 10 9 8 10 10 9 6 3 -0 -2 -3 -2 -2 -2 -0 3 2 -1 -3 -2 -2 -2 -2 -1 -1 -1 -1 -1 -1 -0 -0 -0 -0 -0 -0 0 0 1 1 1 1 0 -0 -0 -1 -1 -1 -1 -1 -1 -1 -1 -0 -0 -0 -0 -0 -0 -0 0
6 -0 -4 -2 5 17 27 25 19 15 10 5 5 6 6 8 6 3 -0 -2 -1 -2 -3 -3 -2 -2 -2 -2 -1 -1 -1 -1 -1 -1 -1 -1 -1 -0 -0 -0 -0 -0 -0 -0 -0 -0 -0 -0 -0 0 0 -0 -1 -1 -1 -1 -2 -1 -1 -1 -1 -1 -1 -1 -0 -1 -1 -0 0
3 3 6 13 21 25 24 18 14 9 4 -2 -1 0 2 5 7 5 2 -1 -1 -2 -2 -3 -2 -2 -1 -1 -1 -0 -1 -1 -1 -1 -1 -1 -1 -0 -0 -0 -0 -0 -0 -1 -1 -1 -1 -1 -1 -1 -1 -1 -1 -1 -1 -1 -2 -2 -2 -2 -2 -1 -1 -1 -1 -1 -1 -1 -1
12 20 26 25 22 20 16 7 7 6 2 -3 -3 -3 -2 0 2 3 1 -2 -2 -2 -3 -3 -2 -2 -2 -1 -1 -1 -1 -1 -2 -2 -2 -1 -1 -1 -1 -1 -1 -1 -1 -2 -2 -2 -2 -2 -2 -2 -1 -1 -1 -1 -1 -1 -1 -2 -2 -1 -2 -2 -1 -1 -1 -1 -0 -0 -1
16 23 23 16 7 4 2 -2 -0 0 -1 -4 -3 -3 -2 -2 -1 -1 -2 -3 -3 -3 -3 -3 -2 -2 -2 -2 -1 -1 -1 -1 -2 -2 -2 -2 -2 -2 -2 -2 -2 -2 -2 -2 -2 -2 -2 -2 -2 -2 -2 -2 -1 -1 -1 -1 -1 -1 -1 -0 -1 -1 -1 -0 -0 -0 -0 -0 -0
2 3 3 1 -5 -7 -7 -6 -5 -4 -3 -3 -2 -2 -2 -1 -2 -2 -2 -2 -2 -2 -2 -2 -2 -2 -2 -2 -2 -2 -2 -1 -2 -2 -2 -2 -2 -2 -2 -2 -2 -3 -2 -2 -2 -2 -2 -2 -2 -2 -2 -1 -1 -0 -0 -0 -0 -0 -0 0 0 0 0 1 1 0 -0 -0 -0
-8 -7 -5 -5 -6 -6 -6 -4 -3 -3 -2 -1 -1 -1 -1 -1 -2 -2 -2 -2 -2 -2 -2 -2 -2 -2 -2 -2 -2 -2 -2 -1 -1 -1 -2 -2 -3 -3 -3 -2 -2 -2 -2 -2 -2 -2 -2 -2 -2 -1 -1 -1 -0 -0 0 0 -0 0 0 0 0 1 1 1 1 0 -0 -0 -0
-7 -6 -5 -4 -4 -4 -3 -3 -2 -1 -1 -0 -0 -0 -1 -1 -2 -2 -2 -2 -2 -2 -2 -2 -2 -2 -2 -2 -2 -2 -2 -1 -1 -1 -1 -1 -2 -3 -3 -2 -2 -1 -1 -1 -1 -1 -1 -1 -1 -1 -0 0 0 0 0 -0 -0 -0 0 0 0 0 0 0 -0 -1 -1 -1 0
-5 -4 -3 -2 -2 -2 -2 -1 -1 -1 -1 -0 -1 -1 -2 -2 -2 -2 -2 -3 -3 -2 -2 -2 -2 -2 -2 -1 -1 -1 -1 -1 -1 -1 -1 -1 -2 -2 -2 -1 -1 -1 -1 -1 -1 -1 -1 -1 -1 -1 -0 0 0 -0 -0 -0 -0 -0 0 0 0 0 0 -0 -0 -1 -1 -1 -1
-3 -3 -2 -1 -1 -1 -0 -0 -1 -1 -1 -1 -2 -2 -2 -2 -2 -2 -2 -3 -3 -2 -2 -2 -2 -1 -1 -1 -1 -1 -1 -1 -1 -2 -2 -2 -2 -1 -1 -1 -1 -1 -1 -1 -1 -1 -1 -0 -0 -0 -0 -0 -1 -1 -1 -1 -1 -0 0 1 1 1 0 -0 -0 -1 -1 -1 -1
-2 -1 -1 -1 -0 0 0 -0 -1 -1 -1 -2 -2 -2 -2 -2 -2 -2 -2 -3 -3 -3 -2 -2 -1 -0 -0 -1 -1 -1 -1 -2 -1 -2 -2 -2 -2 -2 -1 -1 -0 -0 -1 -1 -1 -1 -0 -0 0 0 0 -0 -1 -2 -2 -2 -1 -0 1 1 1 1 1 0 -0 -0 -0 -1 -1
-1 -1 -1 -0 0 0 -0 -0 -0 -1 -1 -1 -2 -2 -2 -1 -2 -2 -3 -3 -3 -2 -2 -1 -0 -0 -0 -1 -1 -2 -2 -2 -2 -2 -1 -1 -1 -1 -1 -1 -1 -0 -0 -1 -1 -1 -0 -0 0 0 -0 -0 -1 -2 -2 -3 -2 -0 1 1 1 1 1 0 0 0 0 -1 -1
-1 -1 -0 0 -0 -0 -0 0 -0 -1 -1 -1 -1 -1 -1 -1 -2 -2 -3 -2 -2 -2 -1 -1 -1 -1 -1 -1 -2 -2 -2 -3 -2 -1 -1 -1 -1 -1 -1 -1 -1 -1 -1 -1 -1 -1 -0 0 -0 -0 -1 -1 -1 -1 -2 -2 -1 -0 1 1 1 0 0 -0 0 0 0 -0 -1
-0 -0 -0 -0 -1 -1 -1 -1 -1 -2 -1 -1 -2 -1 -1 -1 -2 -2 -2 -2 -2 -2 -1 -1 -1 -1 -1 -2 -2 -2 -2 -2 -1 -1 -0 -1 -1 -1 -1 -1 -1 -2 -2 -1 -1 -1 0 0 -0 -1 -1 -1 -1 -1 -1 -2 -1 -1 -0 0 -0 -1 -1 -1 -1 -0 -0 -0 -0
-0 -1 -1 -1 -2 -2 -2 -2 -3 -2 -2 -2 -2 -2 -2 -2 -2 -2 -2 -2 -2 -2 -1 -0 -1 -1 -1 -2 -1 -1 -1 -1 -0 -0 -1 -1 -1 -1 -1 -1 -2 -2 -2 -2 -2 -1 0 1 0 -1 -1 -1 -1 -1 -2 -2 -2 -1 -1 -1 -1 -1 -2 -2 -1 -1 -0 -0 0
-1 -1 -2 -3 -3 -3 -3 -3 -3 -3 -3 -3 -3 -3 -2 -2 -2 -2 -2 -2 -2 -1 -0 0 -0 -1 -1 -1 -1 -1 -1 -0 -0 -1 -1 -1 -2 -2 -2 -2 -2 -2 -2 -2 -1 -1 -0 0 -0 -1 -2 -2 -2 -2 -2 -2 -2 -2 -2 -1 -1 -2 -2 -2 -1 -1 -1 -0 0
-2 -2 -2 -2 -3 -3 -3 -3 -2 -2 -2 -2 -2 -2 -2 -2 -2 -2 -2 -1 -1 -0 0 1 0 -0 -1 -1 -1 -1 -1 -0 -1 -1 -1 -1 -2 -2 -2 -2 -2 -2 -2 -1 -1 -1 -1 -1 -1 -2 -2 -2 -2 -2 -2 -2 -2 -2 -2 -2 -2 -2 -2 -2 -2 -1 -1 -0 -0
-2 -2 -2 -2 -2 -2 -2 -2 -1 -1 -1 -1 -1 -1 -2 -2 -2 -1 -1 -0 0 1 1 0 -0 -0 -1 -1 -1 -1 -1 -1 -1 -2 -2 -1 -1 -2 -2 -2 -2 -2 -2 -1 -2 -2 -2 -2 -2 -2 -2 -2 -2 -2 -2 -2 -2 -2 -2 -2 -2 -2 -2 -2 -2 -1 -1 -1 -0
-1 -1 -1 -1 -1 -1 -1 -1 -1 -0 -0 -0 -1 -1 -1 -1 -1 -1 -0 0 1 1 0 0 -0 -1 -1 -1 -1 -2 -2 -2 -2 -2 -2 -1 -1 -1 -2 -2 -2 -2 -2 -2 -2 -2 -2 -2 -2 -2 -2 -2 -2 -1 -1 -2 -2 -2 -2 -2 -2 -2 -2 -2 -1 -1 -1 -1 -0
-1 -1 -1 -1 -1 -1 -1 -1 -0 0 0 -0 -1 -1 -1 -1 -1 -0 0 1 1 1 -0 -0 -1 -1 -2 -2 -1 -2 -2 -2 -2 -2 -2 -1 -1 -1 -1 -2 -2 -2 -2 -2 -2 -2 -2 -2 -2 -2 -2 -2 -2 -1 -1 -1 -1 -1 -1 -2 -2 -2 -2 -2 -1 -1 -1 -1 -0
-1 -1 -1 -1 -1 -1 -1 -0 0 0 0 -0 -1 -1 -1 -1 -1 0 1 1 1 0 -0 -1 -1 -2 -2 -2 -2 -2 -2 -2 -2 -2 -2 -1 -1 -1 -1 -2 -3 -3 -3 -2 -2 -2 -2 -2 -2 -2 -2 -2 -2 -1 -1 -1 -1 -1 -1 -2 -2 -2 -2 -2 -2 -1 -1 -1 -1
-1 -1 -1 -1 -1 -1 -0 -0 -0 -0 -0 -0 -1 -1 -1 -1 -1 -0 1 1 0 -0 -1 -1 -2 -2 -3 -2 -2 -2 -2 -1 -2 -2 -2 -2 -1 -1 -2 -2 -3 -3 -3 -3 -2 -2 -2 -2 -2 -2 -2 -2 -2 -1 -1 -1 -1 -1 -1 -1 -2 -2 -2 -2 -2 -1 -1 -1 -1
-2 -1 -1 -1 -1 -1 -1 -0 -0 -0 -1 -1 -1 -1 -2 -1 -1 -1 -0 1 -0 -1 -2 -2 -2 -3 -3 -2 -2 -2 -2 -1 -2 -2 -2 -2 -2 -2 -2 -2 -3 -3 -3 -3 -2 -2 -2 -2 -2 -2 -1 -1 -1 -1 -1 -1 -1 -1 -1 -1 -2 -2 -2 -2 -2 -1 -1 -1 -1
-2 -1 -1 -1 -1 -1 -1 -1 -1 -1 -1 -1 -2 -2 -2 -2 -2 -2 -1 -0 -1 -1 -2 -2 -3 -3 -2 -1 -2 -2 -2 -2 -2 -2 -2 -2 -2 -2 -2 -2 -3 -3 -3 -2 -2 -2 -1 -2 -2 -1 -1 -1 -1 -1 -1 -1 -1 -1 -1 -1 -2 -2 -2 -2 -2 -2 -2 -2 -2
-1 -1 -1 -1 -1 -1 -1 -1 -1 -1 -1 -1 -2 -2 -3 -3 -3 -2 -2 -1 -1 -1 -1 -2 -2 -2 -2 -1 -1 -2 -2 -3 -3 -2 -2 -2 -2 -2 -2 -2 -2 -2 -2 -2 -2 -1 -1 -1 -1 -1 -1 -1 -1 -1 -1 -1 -0 -1 -1 -1 -1 -2 -2 -3 -2 -2 -2 -2 -2
-1 -1 -1 -1 -1 -1 -1 -1 -2 -1 -1 -1 -2 -3 -3 -3 -3 -3 -2 -2 -2 -1 -1 -1 -2 -2 -2 -1 -1 -2 -2 -3 -2 -2 -2 -2 -2 -2 -2 -2 -2 -2 -2 -2 -2 -1 -1 -1 -1 -1 -1 -1 -1 -1 -1 -0 0 -0 -1 -1 -1 -1 -2 -2 -2 -2 -2 -2 -2
Height
5760 5761 5762 5763 5764 5765 5765 5766 5767 5768 5769 5769 5769 5770 5770 5771 5771 5772 5772 5773 5774 5774 5774 5775 5775 5776 5776 5777 5777 5777 5778 5778 5778 5778 5779 5779 5779 5779 5778 5778 5778 5778 5778 5777 5777 5777 5777 5777 5777 5777 5777 5777 5777 5777 5777 5777 5778 5778 5777 5777 5776 5775 5775 5774 5774 5773 5773 5772 5772
5758 5759 5761 5762 5762 5762 5763 5764 5764 5765 5765 5766 5767 5767 5767 5768 5768 5769 5769 5770 5770 5771 5771 5772 5773 5773 5774 5774 5774 5774 5775 5775 5775 5775 5775 5775 5775 5775 5775 5775 5775 5775 5774 5774 5774 5774 5774 5774 5774 5774 5774 5774 5774 5774 5774 5773 5774 5773 5773 5773 5774 5774 5773 5771 5771 5770 5770 5769 5769
5757 5759 5760 5760 5759 5759 5759 5760 5761 5761 5762 5763 5763 5764 5764 5764 5765 5765 5766 5766 5767 5768 5769 5769 5769 5770 5771 5771 5771 5771 5772 5772 5772 5772 5772 5772 5772 5772 5772 5772 5772 5772 5771 5771 5771 5771 5771 5771 5771 5771 5771 5771 5771 5771 5771 5770 5770 5770 5769 5769 5770 5770 5769 5769 5768 5768 5767 5766 5766
5754 5757 5757 5756 5756 5756 5757 5757 5757 5758 5759 5759 5760 5760 5761 5761 5761 5762 5762 5763 5764 5764 5765 5766 5767 5767 5768 5768 5768 5768 5769 5769 5769 5769 5769 5769 5769 5769 5769 5769 5769 5769 5768 5768 5768 5768 5768 5768 5768 5768 5768 5768 5768 5768 5768 5768 5768 5767 5767 5766 5765 5765 5766 5766 5765 5764 5764 5763 5762
5751 5752 5753 5753 5753 5754 5754 5754 5755 5755 5755 5756 5757 5757 5758 5758 5758 5759 5759 5760 5761 5761 5762 5763 5764 5764 5764 5765 5765 5765 5765 5766 5766 5766 5766 5766 5766 5766 5766 5766 5766 5765 5765 5765 5765 5765 5765 5765 5765 5765 5765 5765 5765 5765 5765 5765 5765 5765 5764 5764 5763 5763 5762 5762 5761 5761 5760 5760 5759
5747 5748 5750 5751 5751 5751 5752 5752 5752 5752 5753 5754 5754 5754 5754 5754 5755 5756 5756 5757 5757 5758 5759 5759 5760 5761 5761 5762 5762 5762 5762 5763 5762 5763 5763 5763 5763 5763 5763 5763 5763 5763 5763 5763 5763 5763 5762 5762 5762 5762 5762 5762 5762 5762 5762 5762 5762 5762 5761 5761 5761 5760 5759 5759 5758 5758 5757 5757 5756
5744 5746 5748 5748 5749 5750 5751 5752 5750 5749 5750 5750 5751 5751 5751 5752 5752 5753 5753 5754 5754 5755 5756 5756 5757 5758 5758 5759 5759 5759 5759 5759 5759 5759 5760 5760 5760 5760 5760 5760 5760 5760 5760 5760 5760 5760 5759 5759 5759 5759 5759 5759 5759 5759 5759 5759 5759 5759 5759 5758 5757 5756 5756 5755 5755 5754 5754 5754 5753
5743 5744 5745 5746 5746 5747 5749 5749 5745 5745 5747 5747 5747 5748 5748 5749 5749 5750 5750 5751 5751 5752 5753 5754 5754 5754 5755 5755 5755 5755 5756 5756 5756 5756 5756 5757 5757 5757 5757 5757 5757 5757 5757 5757 5758 5757 5757 5757 5757 5756 5756 5756 5756 5756 5756 5756 5755 5755 5755 5754 5753 5753 5753 5752 5752 5751 5751 5750 5750
5742 5743 5743 5743 5743 5744 5745 5744 5741 5741 5743 5743 5744 5744 5745 5746 5746 5747 5747 5748 5749 5749 5750 5751 5751 5751 5752 5752 5752 5752 5753 5753 5753 5753 5753 5754 5754 5754 5754 5754 5754 5754 5754 5754 5754 5754 5754 5754 5754 5754 5754 5754 5754 5753 5753 5753 5752 5752 5751 5751 5750 5750 5750 5749 5749 5749 5748 5748 5747
5740 5740 5741 5741 5740 5740 5739 5739 5738 5738 5738 5739 5740 5741 5742 5743 5744 5744 5745 5745 5746 5747 5747 5748 5748 5749 5749 5749 5749 5749 5749 5750 5750 5750 5750 5750 5751 5751 5751 5751 5751 5751 5751 5750 5751 5751 5751 5751 5751 5751 5750 5750 5750 5749 5749 5749 5749 5749 5749 5748 5748 5748 5747 5746 5746 5745 5745 5745 5744
5738 5738 5739 5739 5739 5738 5735 5734 5733 5733 5734 5736 5737 5739 5739 5740 5741 5741 5742 5743 5744 5744 5744 5745 5745 5746 5746 5746 5746 5747 5747 5747 5747 5748 5748 5748 5748 5748 5748 5747 5748 5747 5747 5747 5748 5748 5748 5748 5748 5747 5747 5747 5747 5747 5746 5746 5746 5746 5746 5745 5745 5745 5744 5743 5743 5743 5742 5742 5742
5736 5737 5738 5738 5739 5735 5730 5728 5729 5730 5732 5734 5735 5736 5737 5738 5738 5739 5739 5740 5741 5741 5741 5742 5742 5743 5743 5743 5744 5744 5744 5744 5744 5745 5745 5745 5745 5744 5744 5744 5744 5744 5744 5744 5744 5745 5744 5744 5744 5744 5744 5744 5744 5744 5744 5744 5744 5743 5743 5743 5742 5742 5741 5740 5740 5739 5739 5739 5739
5734 5736 5739 5738 5734 5727 5723 5724 5727 5729 5730 5732 5733 5734 5734 5734 5735 5736 5736 5737 5738 5738 5739 5739 5739 5739 5740 5740 5740 5741 5741 5741 5741 5741 5742 5741 5741 5741 5741 5741 5741 5741 5742 5742 5742 5742 5742 5742 5741 5741 5741 5741 5741 5741 5741 5740 5740 5740 5740 5739 5739 5739 5738 5737 5737 5736 5736 5735 5735
5735 5736 5734 5729 5723 5721 5722 5724 5725 5726 5727 5729 5729 5730 5731 5731 5732 5732 5733 5734 5734 5735 5736 5736 5736 5737 5737 5737 5738 5738 5738 5738 5738 5738 5738 5739 5739 5739 5739 5739 5739 5739 5739 5739 5739 5739 5739 5739 5738 5738 5738 5738 5738 5737 5737 5737 5737 5736 5736 5736 5736 5735 5734 5734 5733 5733 5732 5732 5732
5730 5726 5723 5721 5721 5723 5724 5724 5724 5724 5724 5725 5726 5727 5728 5728 5728 5729 5730 5731 5731 5732 5733 5734 5734 5734 5734 5734 5735 5735 5735 5735 5735 5735 5735 5735 5736 5736 5736 5736 5736 5736 5736 5736 5736 5736 5735 5735 5735 5735 5735 5734 5734 5734 5734 5734 5733 5733 5733 5732 5732 5732 5731 5730 5730 5729 5729 5728 5728
5719 5719 5720 5721 5724 5725 5724 5723 5721 5721 5721 5722 5722 5723 5724 5724 5725 5725 5727 5728 5728 5729 5730 5731 5731 5731 5731 5732 5732 5732 5732 5732 5732 5733 5733 5733 5733 5733 5733 5733 5733 5733 5733 5733 5733 5732 5732 5732 5732 5731 5731 5731 5731 5730 5730 5730 5729 5729 5729 5729 5728 5728 5727 5726 5726 5725 5725 5724 5724
5716 5716 5719 5722 5724 5724 5723 5720 5718 5717 5718 5718 5719 5719 5720 5721 5721 5722 5723 5724 5725 5726 5727 5727 5728 5728 5728 5729 5729 5729 5729 5729 5729 5730 5730 5730 5730 5730 5730 5730 5730 5730 5730 5730 5729 5729 5729 5729 5728 5728 5728 5728 5727 5727 5727 5726 5726 5725 5725 5724 5724 5724 5723 5722 5722 5721 5721 5720 5720
5715 5718 5720 5721 5720 5719 5717 5715 5714 5714 5714 5715 5717 5717 5718 5718 5719 5719 5720 5721 5722 5723 5724 5724 5724 5725 5725 5726 5726 5726 5726 5727 5727 5727 5727 5727 5727 5727 5727 5727 5727 5727 5727 5726 5726 5726 5725 5725 5725 5725 5724 5724 5724 5723 5723 5723 5722 5721 5721 5720 5720 5719 5719 5718 5718 5717 5716 5716 5715
5714 5717 5717 5714 5713 5712 5711 5711 5711 5711 5712 5713 5714 5715 5716 5716 5717 5717 5718 5719 5719 5720 5721 5721 5722 5722 5723 5723 5723 5723 5724 5724 5724 5724 5724 5724 5724 5724 5724 5724 5724 5724 5724 5723 5723 5722 5722 5722 5721 5721 5721 5721 5720 5720 5719 5719 5718 5717 5717 5716 5716 5715 5714 5714 5713 5713 5712 5711 5711
5710 5710 5709 5706 5707 5707 5708 5708 5708 5709 5709 5711 5712 5713 5713 5714 5714 5715 5716 5716 5717 5718 5718 5719 5719 5719 5719 5720 5720 5720 5720 5720 5720 5720 5720 5721 5721 5721 5721 5720 5720 5720 5720 5719 5719 5719 5719 5718 5718 5718 5717 5717 5716 5716 5715 5714 5714 5714 5713 5712 5712 5711 5710 5710 5709 5708 5708 5707 5706
5703 5703 5703 5703 5703 5704 5705 5705 5706 5707 5708 5709 5709 5710 5711 5711 5712 5713 5713 5714 5714 5715 5715 5715 5716 5716 5716 5717 5717 5717 5717 5717 5717 5717 5717 5717 5717 5717 5717 5717 5717 5716 5716 5716 5715 5715 5714 5714 5714 5714 5713 5713 5712 5712 5711 5710 5710 5709 5709 5708 5708 5707 5706 5705 5705 5704 5703 5703 5702
5699 5699 5699 5700 5701 5702 5702 5703 5704 5705 5705 5706 5707 5707 5708 5709 5709 5710 5710 5711 5711 5712 5712 5712 5713 5713 5713 5713 5714 5714 5714 5714 5714 5714 5714 5714 5714 5714 5714 5713 5713 5713 5712 5712 5712 5711 5711 5710 5710 5709 5709 5709 5708 5708 5707 5706 5706 5705 5704 5704 5703 5703 5702 5701 5700 5700 5699 5699 5698
5697 5697 5698 5698 5699 5699 5700 5701 5702 5702 5703 5703 5704 5704 5705 5705 5706 5707 5707 5707 5708 5708 5709 5709 5709 5709 5710 5710 5710 5710 5710 5710 5710 5710 5710 5710 5710 5710 5709 5709 5709 5709 5708 5708 5708 5707 5707 5706 5706 5706 5705 5705 5704 5704 5703 5702 5702 5701 5701 5700 5699 5699 5698 5697 5696 5696 5695 5694 5694
5694 5695 5695 5696 5696 5697 5698 5699 5699 5699 5700 5700 5701 5701 5702 5702 5703 5704 5704 5704 5704 5705 5705 5706 5706 5706 5706 5706 5706 5707 5707 5707 5707 5707 5706 5706 5706 5706 5706 5705 5705 5705 5704 5704 5704 5704 5703 5703 5702 5702 5701 5701 5700 5699 5699 5699 5698 5697 5697 5696 5695 5695 5694 5693 5692 5692 5691 5690 5689
5692 5693 5693 5694 5694 5695 5695 5696 5696 5697 5697 5698 5698 5699 5699 5699 5700 5700 5701 5701 5702 5702 5702 5703 5703 5703 5703 5703 5703 5703 5703 5703 5703 5703 5703 5702 5702 5702 5702 5702 5701 5701 5701 5700 5700 5700 5699 5699 5699 5698 5697 5697 5696 5695 5695 5694 5694 5694 5693 5692 5692 5691 5690 5689 5688 5688 5687 5686 5685
5689 5690 5691 5691 5692 5692 5693 5693 5694 5694 5694 5695 5695 5696 5696 5697 5697 5698 5698 5698 5699 5699 5699 5699 5699 5699 5699 5699 5699 5699 5699 5699 5699 5699 5699 5699 5699 5699 5698 5698 5698 5697 5697 5697 5696 5696 5696 5695 5695 5694 5694 5693 5692 5692 5691 5690 5690 5690 5689 5688 5688 5687 5686 5685 5684 5683 5683 5682 5681
5687 5688 5688 5689 5689 5689 5690 5690 5691 5691 5691 5692 5693 5693 5694 5694 5694 5695 5695 5695 5695 5696 5696 5696 5696 5696 5696 5696 5696 5696 5696 5695 5695 5695 5695 5695 5695 5695 5694 5694 5694 5694 5694 5693 5693 5692 5692 5691 5691 5690 5690 5689 5688 5688 5687 5687 5686 5686 5685 5684 5684 5683 5682 5681 5680 5679 5678 5677 5676
5684 5685 5685 5686 5687 5687 5687 5688 5688 5689 5689 5689 5690 5690 5690 5691 5691 5691 5692 5692 5692 5692 5693 5692 5692 5692 5692 5692 5692 5692 5692 5692 5692 5692 5692 5691 5691 5691 5691 5690 5690 5690 5690 5689 5689 5689 5688 5688 5687 5686 5686 5685 5684 5684 5683 5683 5682 5681 5681 5680 5679 5678 5677 5677 5676 5675 5674 5673 5672
5682 5683 5683 5684 5684 5684 5684 5685 5685 5686 5686 5686 5687 5687 5688 5688 5688 5688 5688 5688 5689 5689 5689 5689 5689 5689 5689 5689 5689 5689 5689 5689 5689 5688 5688 5688 5688 5687 5687 5687 5687 5686 5686 5686 5685 5685 5684 5684 5683 5682 5682 5681 5680 5680 5679 5678 5678 5677 5676 5675 5675 5674 5673 5672 5671 5671 5670 5669 5668
5679 5680 5680 5681 5681 5682 5682 5683 5683 5683 5683 5684 5684 5684 5684 5684 5684 5684 5685 5685 5685 5685 5685 5685 5685 5685 5685 5685 5685 5685 5685 5685 5685 5685 5685 5684 5684 5684 5684 5683 5683 5683 5682 5682 5682 5681 5681 5680 5679 5678 5678 5677 5676 5676 5675 5674 5673 5673 5672 5671 5670 5669 5669 5668 5667 5666 5666 5665 5664
5677 5677 5678 5678 5679 5679 5679 5679 5680 5680 5680 5680 5681 5681 5681 5681 5681 5681 5681 5682 5682 5682 5682 5682 5682 5682 5682 5682 5682 5682 5682 5682 5682 5681 5681 5681 5681 5680 5680 5680 5679 5679 5679 5678 5678 5677 5677 5676 5675 5674 5674 5673 5672 5672 5671 5670 5669 5669 5668 5667 5666 5665 5664 5664 5663 5662 5662 5661 5660
5674 5674 5675 5675 5676 5676 5676 5677 5677 5677 5677 5677 5677 5677 5678 5678 5678 5678 5678 5678 5679 5679 5679 5679 5679 5679 5679 5679 5679 5679 5679 5678 5678 5678 5678 5678 5677 5677 5676 5676 5676 5675 5675 5674 5674 5674 5673 5672 5671 5671 5670 5669 5669 5668 5667 5666 5665 5664 5664 5663 5662 5661 5660 5660 5659 5659 5658 5657 5657
5671 5671 5672 5672 5672 5673 5673 5673 5674 5674 5674 5674 5674 5674 5674 5674 5675 5675 5675 5675 5675 5675 5675 5675 5675 5675 5675 5675 5675 5675 5675 5675 5675 5674 5674 5674 5674 5673 5673 5672 5672 5672 5671 5671 5670 5670 5669 5669 5668 5667 5666 5665 5665 5664 5663 5662 5661 5661 5660 5659 5658 5657 5657 5656 5655 5655 5654 5654 5653
5668 5668 5669 5669 5669 5669 5670 5670 5670 5670 5670 5670 5671 5671 5671 5672 5672 5672 5672 5672 5672 5672 5672 5672 5672 5672 5672 5672 5672 5672 5672 5672 5671 5671 5671 5671 5670 5670 5669 5669 5669 5668 5668 5667 5667 5666 5666 5665 5664 5664 5663 5662 5661 5661 5660 5659 5658 5657 5656 5655 5654 5654 5653 5652 5652 5651 5650 5650 5649
5665 5665 5666 5666 5666 5666 5666 5667 5667 5667 5667 5668 5668 5668 5668 5669 5669 5669 5669 5669 5669 5669 5669 5669 5669 5669 5669 5669 5669 5669 5669 5668 5668 5668 5668 5667 5667 5667 5666 5665 5665 5665 5664 5664 5663 5663 5662 5662 5661 5660 5659 5659 5658 5657 5656 5655 5654 5654 5653 5652 5651 5650 5649 5649 5648 5647 5647 5646 5645
5662 5662 5663 5663 5663 5663 5664 5664 5664 5664 5664 5664 5665 5665 5665 5665 5666 5666 5666 5666 5666 5666 5666 5666 5666 5666 5665 5665 5665 5665 5665 5665 5665 5664 5664 5664 5664 5663 5663 5662 5661 5661 5661 5660 5660 5659 5659 5658 5658 5657 5656 5655 5655 5654 5653 5652 5651 5650 5649 5648 5647 5647 5646 5645 5644 5644 5643 5642 5642
5659 5659 5660 5660 5660 5660 5661 5661 5661 5662 5662 5662 5662 5662 5662 5663 5663 5663 5663 5663 5663 5663 5663 5663 5663 5663 5663 5662 5662 5662 5662 5662 5661 5661 5661 5660 5660 5660 5659 5659 5658 5658 5658 5657 5657 5656 5656 5655 5654 5654 5653 5652 5651 5650 5650 5649 5648 5647 5646 5645 5644 5643 5643 5642 5641 5640 5640 5639 5638
5656 5657 5657 5657 5658 5658 5658 5659 5659 5659 5659 5659 5659 5659 5659 5659 5660 5660 5660 5660 5660 5660 5660 5660 5660 5659 5659 5659 5659 5659 5659 5658 5658 5658 5657 5657 5657 5657 5656 5656 5655 5655 5654 5654 5654 5653 5652 5652 5651 5650 5649 5649 5648 5647 5646 5645 5644 5644 5643 5642 5641 5640 5639 5639 5638 5637 5636 5636 5635
5654 5654 5655 5655 5655 5656 5656 5656 5656 5656 5656 5656 5656 5656 5656 5657 5657 5657 5657 5657 5657 5657 5657 5657 5657 5656 5656 5656 5656 5656 5655 5655 5655 5654 5654 5654 5654 5654 5653 5653 5652 5652 5651 5651 5650 5650 5649 5649 5648 5647 5646 5645 5644 5644 5643 5642 5641 5640 5639 5639 5638 5637 5636 5635 5635 5634 5633 5633 5632
5652 5652 5652 5653 5653 5653 5653 5654 5654 5653 5653 5654 5654 5654 5654 5654 5654 5654 5654 5654 5654 5654 5654 5654 5653 5653 5653 5653 5653 5653 5652 5652 5652 5651 5651 5651 5650 5650 5650 5649 5649 5649 5648 5648 5647 5647 5646 5645 5644 5644 5643 5642 5641 5640 5639 5639 5638 5637 5636 5635 5635 5634 5633 5632 5632 5631 5630 5629 5629
5649 5649 5650 5650 5650 5650 5650 5650 5650 5650 5650 5650 5650 5650 5650 5650 5651 5651 5651 5651 5651 5650 5650 5650 5650 5650 5650 5650 5650 5649 5649 5649 5649 5649 5648 5648 5648 5647 5647 5647 5646 5645 5645 5644 5644 5643 5642 5642 5641 5640 5639 5638 5638 5637 5636 5635 5635 5634 5633 5632 5631 5630 5630 5629 5628 5628 5627 5626 5626